Regional Weather Roundup
Issued by NWS State College, PA

Home | Current Version | Previous Version | Text Only | Print | Product List | Glossary Off
Versions: 1 2 3 4 5 6 7 8 9 10 11 12 13 14 15 16 17 18 19 20 21 22 23 24 25 26 27 28 29 30 31 32 33 34 35 36 37 38 39 40 41 42 43 44 45 46 47 48 49 50

000
ASUS41 KCTP 010003
RWRCTP

REGIONAL WEATHER ROUNDUP
NATIONAL WEATHER SERVICE STATE COLLEGE PA
800 PM EDT SAT APR 30 2016

Note: "fair" indicates few or no clouds below 12,000 feet with no
significant weather and/or obstructions to visibility.

* = STATION THAT DOES NOT REPORT PRECIPITATION /E.G. RAIN...SNOW...ETC/
    THUNDER OR FOG.

PAZ002>004-007>009-013>016-020>023-029>032-010100-
WESTERN PENNSYLVANIA

CITY           SKY/WX    TMP DP  RH WIND       PRES   REMARKS
ERIE           LGT RAIN  53  47  79 NE7       30.05F
MEADVILLE      LGT RAIN  53  47  79 VRB5      30.04F
FRANKLIN*      CLOUDY    52  46  82 E10       30.08F
NEW CASTLE     LGT RAIN  56  53  90 E6        30.03F
BEAVER COUNTY  NOT AVBL
BUTLER*        CLOUDY    54  48  82 E8        30.08S
PITTSBURGH INT LGT RAIN  59  54  83 E3        30.04F
PITTSBURGH     LGT RAIN  58  52  80 E6        30.05R
INDIANA*       CLOUDY    52  50  93 SE8G14    30.12S FOG
LATROBE        LGT RAIN  55  52  88 SE6       30.08R
WASHINGTON CO* CLOUDY    57  55  94 CALM      30.05S
$$

PAZ004>006-010>012-017>019-024>028-033>037-041-042-045-046-049>053-010100-
CENTRAL PENNSYLVANIA

CITY           SKY/WX    TMP DP  RH WIND       PRES   REMARKS
BRADFORD       CLOUDY    48  40  73 SE9       30.11F
DUBOIS         CLOUDY    49  44  83 SE8       30.10S
CLEARFIELD     LGT RAIN  51  44  77 VRB6      30.13S
JOHNSTOWN      LGT RAIN  47  44  90 SE9       30.10S FOG
ALTOONA        LGT RAIN  49  46  90 SE9       30.14S FOG
STATE COLLEGE  CLOUDY    52  45  76 SE5       30.15F
WILLIAMSPORT   CLOUDY    55  41  59 E8        30.17S
SELINSGROVE    CLOUDY    55  43  63 SE5       30.18F
FT INDIANTOWN  CLOUDY    55  44  68 NE3       30.19S
CAPITAL CITY   CLOUDY    57  44  62 SE6       30.18F
HARRISBURG     CLOUDY    57  45  64 SE5       30.17F
YORK           CLOUDY    55  46  71 SE3       30.18S
$$

PAZ038>040-043-044-047-048-054-055-060>062-067>071-010100-
EASTERN PENNSYLVANIA

CITY           SKY/WX    TMP DP  RH WIND       PRES   REMARKS
SCRANTON       CLOUDY    55  40  56 VRB6      30.18F
MOUNT POCONO   CLOUDY    49  39  68 S7        30.19F
ALLENTOWN      CLOUDY    55  42  61 CALM      30.21S
QUAKERTOWN*    CLOUDY    55  41  58 CALM      30.21F
READING        CLOUDY    57  41  55 SE7       30.19F
LANCASTER      CLOUDY    54  46  74 SE6       30.19F
COATESVILLE    CLOUDY    55  46  71 CALM      30.21F
POTTSTOWN      CLOUDY    56  42  59 CALM      30.22S
BLUE BELL      CLOUDY    54  43  66 CALM      30.21S
DOYLESTOWN     CLOUDY    54  42  64 CALM      30.21S
WILLOW GROVE   NOT AVBL
NORTH PHILA    CLOUDY    58  40  51 SE10      30.24R
PHILADELPHIA   CLOUDY    58  43  57 S10       30.23R
$$




USA.gov is the U.S. government's official web portal to all federal, state and local government web resources and services.